Regional Weather Roundup
Issued by NWS

Home | Current Version | Previous Version | Graphics & Text | Print | Product List | Glossary On
Versions: 1 2 3 4 5 6 7 8 9 10 11 12 13 14 15 16 17 18 19 20 21 22 23 24 25 26 27
000
ASUS45 KBOU 310007
RWRCO

WEATHER ROUNDUP FOR COLORADO
NATIONAL WEATHER SERVICE DENVER/BOULDER CO
600 PM MDT TUE AUG 30 2016

NOTE: "FAIR" INDICATES FEW OR NO CLOUDS BELOW 12000 FEET WITH NO
SIGNIFICANT WEATHER AND/OR OBSTRUCTIONS TO VISIBILITY.

COZ001>005-013-030-031-310100-
...NORTHWEST COLORADO...

CITY           SKY/WX    TMP DP  RH WIND       PRES   REMARKS
CRAIG          FAIR      85  30  13 NW5       30.20F
HAYDEN         FAIR      81  36  19 SE24      30.23S
MEEKER         FAIR      81  35  19 S12G20    30.21F
MOUNT WERNER   NOT AVBL
STEAMBOAT SPGS FAIR      74  40  28 E15       30.28S
WALDEN         FAIR      70  36  28 SE10      30.41F
$$

COZ006>008-011-310100-
...WEST CENTRAL VALLEYS...

CITY           SKY/WX    TMP DP  RH WIND       PRES   REMARKS
GRAND JUNCTION FAIR      87  38  17 E7        30.11F
MONTROSE       FAIR      81  34  18 N5        30.20F
EAGLE          SUNNY     79  39  24 E15G21    30.27R
RIFLE          FAIR      83  37  19 CALM      30.16F
DELTA          FAIR      87  29  12 SE7       30.15F
NUCLA          FAIR     N/A N/A N/A CALM      30.24F
$$

COZ017>023-064>068-310100-
...SOUTHWEST COLORADO...

CITY           SKY/WX    TMP DP  RH WIND       PRES   REMARKS
DURANGO        FAIR      77  39  25 N5        30.28S
CORTEZ         CLOUDY    81  47  30 NE10      30.22S
PAGOSA SPRINGS PTSUNNY   70  38  30 N8        30.37R
TELLURIDE      FAIR      66  41  39 NW3       30.46S
WOLF CREEK PAS CLOUDY    46  37  71 CALM      30.69S
$$

COZ009-010-012-014-032>034-037-058>063-310100-
...CENTRAL COLORADO...

CITY           SKY/WX    TMP DP  RH WIND       PRES   REMARKS
ASPEN          CLOUDY    64  43  46 SE16G25   30.39R
BUENA VISTA    DRIZZLE   60  47  61 E7        30.44R
COPPER MTN     PTSUNNY   54  41  62 S8        30.69S
BERTHOUD PASS  PTSUNNY   37  27  65 E16G29    30.73R
COTTONWOOD PAS PTSUNNY   63  41  45 E14       30.55S THUNDER
GUNNISON       PTSUNNY   72  41  33 E14G21    30.38S
KREMMLING      FAIR      72  34  25 E3        30.37S
LEADVILLE      FAIR      51  38  60 VRB6      30.55R
MONARCH PASS   CLOUDY    46  37  71 NE21      30.76F
SALIDA         FAIR      68  45  42 SE8       30.46S
SUNLIGHT       FAIR      63  37  39 CALM      30.60S
WILKERSON PASS FAIR      48  37  66 NE6       30.68R
$$

COZ069>075-310100-
...SAN LUIS VALLEY/SANGRE DE CRISTO MOUNTAINS...

CITY           SKY/WX    TMP DP  RH WIND       PRES   REMARKS
ALAMOSA        FAIR      72  43  35 E6        30.35S
LA VETA PASS   FAIR      54  45  71 MISG      30.56S
SAGUACHE       FAIR      68  43  40 NW5       30.39S
$$

COZ035-036-038>040-310100-
...NORTHERN COLORADO FRONT RANGE...

CITY           SKY/WX    TMP DP  RH WIND       PRES   REMARKS
DENVER INTL AP PTSUNNY   77  49  37 NE16      30.25F
DMNS CITY PARK   N/A     76  48  37 E1        30.25S
AURORA         PTSUNNY   78  46  32 N14       30.27S
FRONT RANGE AP PTSUNNY   77  54  44 NE21      30.28R
ERIE MUNI ARPT FAIR      81  44  26 E8        30.24S
BOULDER MUN AP FAIR      79  46  31 NE6       30.25S
CENTENNIAL     PTSUNNY   78  43  28 N6        30.28S
BROOMFIELD     PTSUNNY   77  46  33 NW6       30.28S
FORT COLLINS   FAIR      79  54  41 E12       30.23S
LONGMONT       FAIR      82  45  27 NE6       30.26S
$$

COZ041-046-047-076>085-087-088-310100-
...PIKES PEAK/PALMER DIVIDE AND SOUTHERN FOOTHILLS...

CITY           SKY/WX    TMP DP  RH WIND       PRES   REMARKS
COLO. SPRINGS  PTSUNNY   71  48  43 SE5       30.33S
A. F. ACADEMY  FAIR      67  51  56 S5        30.33S
SCHRIEVER AFB  NOT AVBL
ELLICOTT       NOT AVBL
FALCON         FAIR      71  45  39 CALM      30.38S
FORT CARSON    SUNNY     73  49  44 E6        30.30S
LIMON          FAIR      68  54  60 S7        30.29R
MONUMENT HILL  FAIR      68  45  42 S6        30.38F
TRINIDAD       FAIR      70  52  52 W7        30.29S
$$

COZ042>045-048>051-090-091-310100-
...NORTHEAST COLORADO...

CITY           SKY/WX    TMP DP  RH WIND       PRES   REMARKS
GREELEY ARPT   FAIR      75  54  46 E14       30.25S
AKRON          PTSUNNY   66  58  75 SE12      30.27R
BURLINGTON     FAIR      75  55  49 SE9       30.23S
WRAY           FAIR      70  63  78 E6        30.23
STERLING       FAIR      79  57  47 SE12      30.22R
HOLYOKE        FAIR      73  59  60 SE10      30.23F
FORT MORGAN    FAIR      76  52  44 E14       30.26R
$$

COZ086-089-092>099-310100-
...SOUTHEAST COLORADO...

CITY           SKY/WX    TMP DP  RH WIND       PRES   REMARKS
PUEBLO         FAIR      80  51  36 SE17      30.22S
LA JUNTA       FAIR      81  52  36 E10       30.21S
LAMAR          FAIR      81  55  40 E5        30.18S
SPRINGFIELD      N/A     69  58  67 S5        30.24S
$$




USA.gov is the U.S. government's official web portal to all federal, state and local government web resources and services.